Regional Weather Roundup
Issued by NWS Jackson, KY

Home | Current Version | Previous Version | Graphics & Text | Print | Product List | Glossary On
Versions: 1 2 3 4 5 6 7 8 9 10 11 12 13 14 15 16 17 18 19 20 21 22 23 24 25 26 27
000
ASUS43 KJKL 201010
RWRJKL

EAST KENTUCKY HOURLY WEATHER ROUNDUP
NATIONAL WEATHER SERVICE JACKSON KY
500 AM EST MON FEB 20 2017

NOTE: "FAIR" INDICATES FEW OR NO CLOUDS BELOW 12,000 FEET WITH
NO SIGNIFICANT WEATHER AND/OR OBSTRUCTIONS TO VISIBILITY.

* THESE REPORTS ARE NOT UNDER NWS QUALITY CONTROL AND MAY NOT
  REPORT WEATHER SUCH AS PRECIPITATION AND FOG.

KYZ079-080-083-085-087-088-110-112-115-119-120-201100
...EASTERN KENTUCKY...

CITY           SKY/WX    TMP DP  RH WIND       PRES   REMARKS
JACKSON        PTCLDY    47  42  83 SE5       30.17S
LONDON         CLOUDY    38  34  85 CALM      30.18R
SOMERSET*      CLEAR     36  36 100 CALM      30.19R
MONTICELLO*    FOG       32  32 100 NE9       30.19R VSB 1/4 WCI  24
WILLIAMSBURG*  CLOUDY    39  39 100 SE3       30.18R
MIDDLESBORO*   FOG       37  37 100 CALM      30.21R VSB 1/4
HARLAN APT*    CLOUDY    37  36  93 CALM      30.19S VSB<1/4
PIKE CO APT*     N/A     44  44 100 SE5       30.18S
BIG SANDY APT* FOG       40  40 100 CALM      30.19R VSB 1/2
MOREHEAD APT*  FOG       43  41  93 CALM      30.20S VSB 1/2
ASHLAND*       CLOUDY    39  37  93 CALM      30.21R VSB<1/4
$$

KYZ035-036-041-042-044-050-067-078-099-201100
...CENTRAL KENTUCKY...

CITY           SKY/WX    TMP DP  RH WIND       PRES   REMARKS
MT STERLING*   FOG       32  32 100 CALM      30.20R VSB 1/2
FLEMING/MASON* FOG       33  33 100 NE6       30.21R VSB<1/4 WCI  27
DANVILLE*      FOG       36  36 100 CALM      30.19R VSB 1/2
LEXINGTON      FOG       39  38  96 SE6       30.18R VSB 1/2 WCI  35
FRANKFORT      FOG       36  34  92 CALM      30.17R VSB 1/4
LOUISVILLE     FOG       42  40  92 CALM      30.17R VSB 1/16
LEBANON*       FOG       41  41 100 CALM      30.17R VSB<1/4
GLASGOW*       FOG      N/A N/A N/A CALM      30.15S VSB 1/2
BOWLING GREEN  FOG       42  41  96 CALM      30.16R VSB 1/4
$$

KYZ091>093-OHZ055-061-077-WVZ005-015-034-035-042-201100
...SOUTHERN OHIO/WEST VIRGINIA...

CITY           SKY/WX    TMP DP  RH WIND       PRES   REMARKS
COVINGTON      FOG       39  39 100 E3        30.18S VSB 1/4
COLUMBUS       FOG       40  38  93 CALM      30.19R VSB 1/8
DAYTON         FOG       37  37 100 S3        30.19S VSB 1/16
WILMINGTON     FOG       33  33 100 CALM      30.19R VSB 1/4
HUNTINGTON     FOG       35  34  96 CALM      30.21R VSB 1/4
CHARLESTON     CLOUDY    39  37  92 NE5       30.21R FOG
PINEVILLE*     FOG       36  33  91 MISG      30.25S VSB 1/4
BECKLEY        FOG       37  37 100 S6        30.19S VSB 3/4 WCI  32
BLUEFIELD      CLOUDY    41  39  93 SW5       30.20S
LOGAN CO APT*  FOG       43  43 100 CALM      30.19S VSB 3/4
$$

VAZ002-007-008-TNZ017-027-036-066-071-201100
...SOUTHWEST VIRGINIA/EAST TENNESSEE...

CITY           SKY/WX    TMP DP  RH WIND       PRES   REMARKS
WISE*          PTCLDY    48  41  76 CALM      30.20F
JONESVILLE*      N/A     34  34 100 CALM      30.20F FOG
ABINGDON*      FOG       38  38  99 E5        30.21R VSB 1   WCI  34
BRISTOL        FOG       34  33  96 CALM      30.21R VSB 1
MORRISTOWN*    SUNNY     45  43  93 CALM      30.17R
SEVIERVILLE*   SUNNY     36  34  93 CALM      30.17R
KNOXVILLE      CLOUDY    43  39  86 N5        30.15S
LAFOLLETTE*    FOG       36  36 100 CALM      30.21R VSB 0
OAK RIDGE      CLOUDY    42  39  89 CALM      30.18S FOG
CROSSVILLE     CLOUDY    40  39  97 CALM      30.16S FOG
NASHVILLE      PTCLDY    48  45  89 CALM      30.15R
$$

...KEY TO REMARKS...
VSB - VISIBILITY IN MILES
WCI - WIND CHILL INDEX
HX  - HEAT INDEX

$$




USA.gov is the U.S. government's official web portal to all federal, state and local government web resources and services.